sat.trackr.live / text

‹ back to catalog

STARLINK-32762

NORAD 62748 · 2025-014P

PAYLOAD ACTIVE UNKNOWN

§ Identity

Operator
Country
US
Launch date
2025-01-21
Launch site
AFETR
Launch vehicle
Mass (kg)
RCS (m²)

Purposes: comms

External: N2YO · Heavens-Above · Gunter

§ Orbital elements

Epoch: 2026-05-24T22:56:44.867040Z

Period
94.27 min
Inclination
42.9960°
Eccentricity
0.0000704
Mean motion
15.27591972 rev/d
Perigee alt
482.5 km
Apogee alt
483.5 km
Semi-major
6,861.2 km
B*
5.0392e-4
RAAN
86.9342°
Arg perigee
236.8845°
Mean anomaly
123.1939°
Rev number
7,488

§ Raw data

STARLINK-327621 62748U 25014P   26144.95607485  .00013636  00000+0  50392-3 0  99902 62748  42.9960  86.9342 0000704 236.8845 123.1939 15.27591972 74881

JSON: /api/v1/satellites/62748 · /tle

For live sub-satellite position, see the globe view (requires WebGL).

§ Visibility from observer

Set your observer location to see the next 7 days of passes ≥ 10°. The values pass through the URL so the page stays shareable.

No JS? Fill the form by hand. The geolocation button needs JavaScript.